Temp
53 53 53 53 52 51 48 40 28 44 47 36 34 30 36 42 40 44 41 40 38 37 40 36 32 33 36 39 44 39 42 40 40 47 55 62 60 54 48 45 37 43 40 42
53 53 53 53 52 51 45 37 37 42 45 29 29 35 35 39 39 40 39 37 41 41 39 33 38 37 43 42 41 40 43 36 34 40 46 50 53 56 57 46 42 42 43 44
53 53 53 53 52 51 40 37 29 33 37 38 34 32 31 32 43 40 41 39 40 38 38 41 36 38 43 43 44 48 43 35 36 39 43 48 46 53 56 51 40 42 48 48
53 53 53 53 52 51 40 33 30 34 30 28 34 33 31 31 32 38 40 36 37 36 32 35 34 38 40 43 43 42 37 30 38 41 49 50 51 53 54 51 54 48 49 51
53 53 53 52 52 51 38 33 35 36 36 37 35 32 28 32 34 36 34 34 37 37 34 36 32 37 37 35 41 39 37 31 36 37 48 51 50 53 55 56 56 55 52 54
52 52 52 53 52 49 42 44 43 39 36 32 32 32 33 34 36 38 40 38 35 34 39 43 44 44 44 42 39 38 34 34 32 30 40 47 42 52 52 54 58 59 51 63
53 52 52 53 53 52 46 44 42 36 32 34 34 37 37 34 35 33 37 39 33 40 46 46 46 44 45 43 42 44 37 36 37 29 36 32 46 49 56 56 46 47 56 55
53 52 52 53 53 53 46 45 42 38 31 36 37 36 35 36 38 35 36 39 42 41 39 34 34 37 38 41 44 42 43 38 32 27 28 43 43 44 41 41 40 45 45 48
52 53 53 53 53 53 46 45 45 42 35 32 39 36 37 34 34 36 35 41 41 38 33 33 23 28 33 32 36 40 42 41 34 30 27 32 39 46 52 50 40 46 47 46
52 53 53 53 53 54 48 44 44 42 36 39 37 36 35 38 37 35 34 36 36 36 29 20 22 28 39 28 30 32 34 35 30 29 26 37 46 49 52 39 37 46 48 47
52 52 53 53 54 54 49 46 42 44 39 40 43 41 37 40 39 34 37 35 36 34 28 31 32 33 34 33 36 35 33 31 34 35 33 34 49 48 39 45 46 48 49 49
52 52 53 54 54 54 51 43 43 47 41 40 43 45 47 44 44 40 39 34 38 36 35 35 35 32 33 34 30 39 32 35 33 36 36 47 52 50 53 52 46 49 48 52
51 52 53 54 54 54 52 46 47 45 41 39 35 39 44 44 45 47 38 35 39 39 42 39 37 32 36 29 31 34 38 42 37 38 41 43 48 54 55 55 50 52 53 53
51 52 53 54 54 54 54 47 45 44 41 36 36 48 45 51 47 45 46 43 44 41 41 39 36 35 41 34 37 35 37 38 37 38 42 45 52 53 54 54 53 53 54 55
52 52 53 54 54 53 50 44 46 45 41 35 36 43 50 51 48 46 46 44 42 40 39 35 33 39 39 40 37 33 39 37 35 36 43 42 46 52 55 53 52 53 53 53
52 52 53 53 53 52 41 37 43 47 46 40 33 42 45 48 49 48 47 44 43 42 40 37 38 43 38 34 32 40 42 45 45 42 49 47 50 54 56 54 55 54 54 54
52 52 52 52 52 45 40 41 48 49 48 39 36 34 45 46 47 45 45 45 40 40 41 38 35 37 38 33 31 40 42 44 45 49 49 47 51 50 55 57 57 55 55 56
52 52 52 52 51 49 42 45 50 49 45 40 35 34 37 45 40 40 41 38 38 41 41 38 34 36 34 29 40 43 44 44 45 47 48 47 51 53 55 57 55 54 54 54
51 51 52 47 42 39 42 54 50 43 43 32 37 34 32 41 42 42 42 36 32 38 35 36 38 30 30 37 39 40 43 42 42 46 47 48 48 49 50 52 54 53 54 55
51 47 44 36 42 52 52 43 39 38 42 42 38 42 36 40 41 38 37 38 34 32 36 40 36 34 40 41 43 44 45 45 45 41 41 43 43 45 47 48 51 53 54 55
42 39 38 43 49 42 36 32 32 32 32 38 39 38 34 43 37 35 37 34 35 30 33 35 33 33 36 43 44 46 46 46 47 46 45 46 45 45 46 47 49 52 54 54
41 43 46 45 39 36 36 28 32 33 31 37 35 36 37 40 38 35 35 32 33 29 37 34 32 37 43 45 46 48 48 48 48 49 48 47 48 48 46 47 48 50 52 54
47 43 40 34 34 28 31 29 29 29 37 37 36 34 35 38 35 33 29 30 30 31 24 30 35 41 43 45 45 45 47 50 49 49 50 50 49 50 49 47 49 50 51 53
40 34 28 31 30 31 31 33 34 37 36 37 35 33 31 33 30 36 29 29 27 17 16 22 35 42 42 43 43 42 43 47 48 49 49 49 49 49 50 49 51 50 49 51
38 33 26 30 36 38 38 38 36 38 38 36 33 34 33 27 28 32 25 23 15 18 21 29 36 41 40 39 41 41 42 45 47 48 49 49 49 49 49 50 50 51 50 51
40 34 32 35 34 36 38 38 37 40 37 36 34 30 29 27 27 21 19 22 15 24 29 35 37 39 39 39 40 42 43 44 46 46 48 49 48 48 49 50 50 49 50 50
38 33 37 36 35 36 38 39 40 40 39 32 32 31 29 30 23 19 31 25 27 31 36 37 37 38 39 40 41 43 44 44 44 46 48 48 49 49 48 47 49 49 49 50
MSLP
1021.37 1020.70 1020.00 1019.20 1018.43 1017.68 1017.21 1017.30 1016.86 1015.68 1015.42 1015.79 1016.06 1015.75 1014.78 1013.74 1012.52 1011.72 1011.28 1010.66 1010.33 1009.75 1009.07 1009.00 1009.19 1008.76 1009.04 1008.54 1007.12 1005.06 1003.33 1001.99 1000.66 999.04 997.80 998.05 998.64 999.47 1000.71 1001.95 1002.84 1002.82 1002.11 999.72
1021.36 1020.72 1020.06 1019.33 1018.56 1018.05 1018.04 1017.85 1017.48 1015.94 1015.65 1016.28 1016.30 1015.66 1014.92 1014.02 1012.96 1011.99 1011.38 1010.86 1010.27 1009.89 1009.47 1009.20 1008.75 1008.99 1009.13 1009.14 1008.00 1006.54 1004.94 1003.08 1001.90 1000.13 998.99 998.31 998.12 998.78 999.91 1000.68 1001.79 1001.71 1001.57 999.26
1021.33 1020.73 1020.09 1019.41 1018.76 1018.28 1018.43 1018.39 1018.03 1017.13 1016.63 1016.79 1016.68 1016.10 1015.01 1014.23 1012.97 1012.14 1011.55 1010.94 1010.26 1009.93 1009.49 1009.13 1008.73 1008.65 1008.69 1008.83 1007.93 1007.06 1005.75 1004.34 1002.44 1000.05 998.45 997.96 998.23 998.45 999.13 1000.22 1000.82 1000.48 998.99 998.59
1021.25 1020.71 1020.11 1019.43 1018.84 1018.32 1018.62 1018.80 1018.58 1018.08 1017.42 1016.85 1016.50 1016.40 1015.61 1014.41 1013.53 1012.54 1011.75 1011.10 1010.86 1010.68 1010.05 1009.43 1008.80 1008.62 1008.36 1008.37 1008.11 1007.74 1006.91 1005.60 1003.49 1001.09 999.44 998.54 997.77 997.86 998.54 999.05 999.02 999.62 998.66 998.35
1021.10 1020.63 1020.09 1019.43 1018.88 1018.36 1018.74 1019.05 1018.58 1017.92 1017.34 1016.63 1016.19 1015.93 1015.26 1014.66 1013.86 1013.36 1012.17 1011.67 1011.11 1010.80 1010.20 1009.79 1009.21 1008.85 1008.48 1008.48 1008.31 1007.97 1007.16 1006.02 1004.60 1002.22 1000.29 998.85 998.56 997.99 997.92 997.78 998.56 998.98 998.55 997.57
1020.92 1020.38 1019.86 1019.25 1018.83 1018.52 1018.63 1018.47 1018.16 1018.03 1017.14 1016.82 1016.37 1015.75 1015.27 1014.66 1014.21 1012.68 1012.25 1011.82 1011.38 1010.66 1009.67 1009.16 1008.78 1008.56 1008.21 1008.58 1008.43 1008.01 1007.68 1006.77 1005.38 1003.43 1001.70 999.91 998.94 997.63 997.99 998.28 998.34 998.24 998.52 996.38
1020.66 1020.14 1019.57 1018.98 1018.52 1018.38 1018.52 1018.42 1018.39 1017.87 1016.97 1016.51 1015.89 1015.32 1014.90 1014.35 1013.98 1013.27 1012.13 1011.74 1011.36 1010.03 1009.08 1008.62 1007.54 1007.43 1007.49 1007.76 1007.74 1007.62 1007.54 1007.31 1006.32 1004.66 1002.37 1000.73 999.19 998.39 997.82 998.33 999.88 999.46 998.82 998.12
1020.35 1019.78 1019.27 1018.72 1018.18 1017.95 1018.18 1018.19 1018.17 1017.67 1016.81 1015.97 1015.16 1014.89 1014.45 1013.95 1013.32 1012.73 1012.00 1011.25 1010.46 1009.94 1009.71 1009.02 1007.74 1007.34 1007.70 1007.32 1007.15 1007.15 1007.13 1006.94 1006.19 1005.23 1003.34 1000.86 1000.39 1001.09 1001.61 1001.02 1001.98 1001.91 1001.10 1000.07
1020.04 1019.37 1018.76 1018.32 1017.79 1017.52 1017.79 1017.82 1017.75 1017.53 1016.73 1015.32 1015.00 1014.63 1014.14 1013.69 1012.98 1012.37 1011.78 1010.88 1010.19 1010.01 1009.87 1009.32 1008.60 1007.66 1007.18 1006.97 1007.15 1007.33 1006.79 1005.50 1006.21 1005.39 1004.33 1002.74 1003.78 1002.20 1001.74 1001.98 1002.84 1002.79 1002.48 1001.69
1019.66 1018.96 1018.31 1017.86 1017.47 1017.07 1017.28 1017.41 1017.32 1017.22 1016.41 1015.02 1014.91 1014.44 1013.93 1013.69 1013.16 1012.77 1011.90 1011.46 1010.68 1010.40 1010.20 1009.73 1008.91 1007.69 1006.99 1007.48 1007.17 1007.13 1006.87 1006.66 1006.28 1005.73 1004.74 1003.63 1003.51 1001.87 1000.67 1002.69 1004.44 1003.42 1002.95 1002.32
1019.23 1018.59 1017.95 1017.49 1016.97 1016.63 1016.89 1016.79 1016.92 1016.98 1016.21 1014.58 1014.00 1013.65 1013.48 1013.13 1012.94 1012.66 1011.97 1011.67 1011.26 1011.00 1010.73 1009.90 1008.92 1008.20 1007.45 1007.01 1006.80 1006.89 1007.05 1007.08 1006.38 1005.76 1005.04 1004.49 1003.61 1002.47 1003.14 1004.78 1004.27 1003.74 1003.01 1002.25
1018.75 1018.13 1017.54 1016.98 1016.51 1016.18 1016.25 1016.67 1016.51 1016.38 1016.22 1014.21 1013.07 1012.39 1011.86 1011.97 1011.88 1012.50 1012.22 1012.13 1011.62 1011.19 1011.05 1010.70 1009.73 1008.87 1008.66 1007.96 1007.64 1007.70 1007.85 1007.73 1007.34 1006.91 1006.06 1005.17 1004.68 1004.44 1004.36 1004.39 1004.24 1003.51 1002.76 1001.78
1018.28 1017.66 1017.04 1016.57 1016.22 1015.83 1015.79 1015.88 1015.85 1016.11 1015.44 1013.48 1012.77 1011.43 1010.82 1010.90 1011.16 1011.41 1011.96 1011.44 1011.14 1011.07 1010.81 1010.67 1009.99 1009.30 1008.97 1008.61 1008.60 1008.30 1007.91 1007.85 1007.71 1006.96 1006.14 1005.33 1004.62 1004.20 1004.23 1003.97 1003.75 1003.15 1002.45 1001.65
1017.76 1017.15 1016.52 1016.07 1015.81 1015.64 1015.36 1015.63 1015.65 1015.98 1015.46 1014.66 1012.27 1011.00 1010.60 1010.04 1010.38 1010.74 1010.91 1010.89 1010.90 1011.00 1010.87 1010.57 1010.18 1009.56 1009.16 1009.10 1008.86 1008.37 1008.12 1008.43 1007.74 1006.93 1006.27 1005.07 1004.09 1004.21 1004.04 1003.54 1003.32 1002.81 1002.21 1001.39
1017.22 1016.58 1015.97 1015.57 1015.37 1015.27 1015.09 1015.35 1015.28 1015.36 1015.77 1014.76 1012.76 1011.34 1010.18 1010.36 1010.48 1010.55 1010.51 1010.75 1010.88 1010.95 1010.92 1010.63 1010.16 1009.55 1009.32 1008.74 1008.73 1008.73 1008.80 1008.37 1007.51 1006.77 1006.55 1006.54 1005.13 1004.49 1004.04 1003.61 1003.12 1002.58 1002.03 1000.95
1016.62 1015.87 1015.35 1015.00 1014.78 1014.89 1015.43 1015.17 1014.83 1014.82 1015.12 1014.48 1013.47 1012.18 1011.04 1010.13 1009.78 1009.66 1009.78 1010.13 1010.45 1010.46 1010.36 1010.37 1009.72 1009.26 1009.44 1009.47 1009.03 1009.05 1008.74 1007.54 1006.80 1006.54 1006.05 1006.06 1005.08 1004.71 1003.90 1003.46 1002.91 1002.42 1001.91 1001.13
1015.80 1015.11 1014.36 1013.92 1014.05 1014.69 1014.90 1014.65 1014.28 1014.29 1014.80 1014.71 1013.69 1012.48 1010.86 1010.16 1009.78 1009.72 1009.80 1009.88 1010.19 1010.32 1010.09 1010.15 1009.84 1009.54 1009.30 1009.29 1009.12 1009.14 1008.00 1007.17 1007.19 1006.43 1006.46 1006.07 1005.18 1004.56 1003.92 1003.38 1002.69 1002.29 1001.73 1000.92
1015.10 1014.33 1013.56 1013.13 1013.51 1014.05 1013.98 1013.49 1013.47 1014.01 1014.36 1014.61 1014.24 1012.67 1011.46 1010.68 1010.25 1009.95 1010.03 1010.14 1010.11 1010.27 1010.17 1010.16 1010.24 1009.70 1009.48 1009.62 1009.01 1008.41 1008.18 1008.07 1007.43 1006.51 1006.50 1006.06 1005.30 1004.30 1003.79 1003.19 1002.57 1002.02 1001.36 1000.42
1014.42 1013.67 1013.52 1013.80 1013.83 1013.90 1013.64 1013.27 1013.32 1013.95 1014.42 1014.41 1014.16 1013.25 1012.12 1011.25 1010.70 1010.51 1010.37 1010.63 1010.60 1010.57 1010.54 1010.38 1010.24 1010.20 1010.01 1009.56 1009.42 1008.46 1008.38 1008.33 1007.66 1006.92 1006.52 1006.08 1005.61 1004.74 1004.31 1003.63 1002.77 1002.13 1001.28 1000.61
1013.92 1013.50 1013.90 1014.02 1013.58 1013.19 1013.00 1013.54 1013.89 1013.84 1013.92 1013.94 1013.46 1012.69 1012.20 1011.90 1010.94 1011.06 1011.27 1011.27 1011.26 1010.94 1011.06 1010.71 1010.37 1010.48 1010.30 1010.04 1009.35 1009.03 1008.83 1007.96 1007.76 1007.30 1006.71 1006.00 1005.54 1004.86 1004.32 1003.96 1003.23 1002.39 1001.61 1000.69
1015.26 1015.25 1014.88 1014.10 1013.30 1013.21 1013.30 1013.96 1014.12 1014.16 1014.00 1013.33 1012.69 1012.35 1012.16 1011.65 1011.60 1011.75 1012.07 1012.03 1011.79 1011.58 1011.39 1010.82 1010.60 1010.32 1010.12 1009.04 1008.59 1008.07 1007.61 1007.30 1007.29 1006.69 1006.20 1005.96 1005.78 1005.62 1005.18 1003.92 1003.05 1002.33 1001.51 1000.85
1016.74 1016.54 1015.75 1014.72 1013.94 1013.74 1013.79 1014.10 1014.18 1014.01 1013.61 1012.74 1012.53 1012.20 1012.02 1011.83 1011.84 1012.13 1012.22 1012.43 1012.48 1012.09 1011.49 1011.15 1010.71 1010.29 1009.13 1008.79 1008.33 1007.79 1007.40 1007.27 1006.90 1006.43 1005.55 1005.21 1005.32 1004.98 1004.30 1003.58 1002.97 1002.17 1001.31 1000.67
1015.77 1015.81 1015.41 1014.86 1014.35 1014.29 1014.09 1014.00 1013.98 1013.64 1012.90 1012.33 1012.24 1012.32 1012.24 1012.09 1012.35 1012.67 1012.87 1013.01 1013.03 1012.54 1012.32 1011.96 1011.01 1009.69 1008.89 1008.50 1008.06 1007.81 1007.59 1006.98 1006.40 1005.50 1004.70 1004.12 1003.58 1003.83 1003.74 1002.78 1002.44 1001.92 1001.04 1000.46
1015.95 1015.69 1015.41 1014.85 1014.03 1013.58 1013.38 1013.19 1012.88 1012.35 1012.23 1012.02 1012.24 1012.39 1012.58 1012.68 1012.89 1013.11 1013.49 1013.61 1013.62 1013.77 1013.37 1012.23 1010.57 1009.43 1008.81 1008.15 1007.67 1007.20 1006.81 1006.00 1004.96 1004.86 1004.56 1004.26 1003.58 1002.82 1002.44 1002.09 1001.41 1000.85 1000.57 1000.10
1015.66 1015.46 1015.06 1013.85 1012.73 1012.36 1012.13 1012.18 1012.25 1011.69 1011.38 1011.73 1012.09 1012.40 1012.66 1013.13 1013.29 1013.60 1013.99 1014.16 1014.24 1014.12 1013.00 1011.54 1009.93 1009.14 1008.74 1008.16 1007.61 1007.06 1006.48 1005.95 1005.53 1004.88 1004.15 1002.74 1002.34 1002.15 1001.26 1000.96 1000.61 1000.30 1000.08 999.88
1014.80 1014.23 1013.42 1012.86 1012.89 1012.20 1011.93 1011.84 1011.70 1011.00 1011.23 1011.57 1011.90 1012.35 1012.77 1013.30 1013.58 1014.06 1014.43 1014.48 1014.36 1013.25 1011.64 1010.02 1009.35 1008.82 1008.31 1007.86 1007.41 1007.24 1006.95 1006.50 1005.77 1004.55 1003.50 1003.02 1002.60 1002.10 1001.09 1000.17 999.57 999.85 999.36 999.80
1013.45 1012.62 1011.82 1011.92 1011.90 1011.60 1011.15 1010.94 1010.62 1010.60 1011.10 1011.58 1011.96 1012.38 1012.51 1013.13 1013.47 1013.83 1013.79 1013.29 1011.82 1010.68 1010.05 1009.47 1009.03 1008.51 1007.76 1007.19 1006.91 1006.46 1006.10 1005.52 1005.17 1004.82 1004.10 1003.57 1002.65 1001.82 1001.08 1000.08 999.70 999.31 998.93 998.89
Wind_Speed
21 21 21 21 20 19 6 2 3 4 3 3 2 3 4 8 7 6 6 5 9 9 9 4 1 5 10 23 19 12 3 1 4 13 8 21 22 16 9 8 5 5 4 8
22 21 20 21 21 12 4 4 4 4 1 2 3 5 5 4 5 5 4 5 4 7 7 6 5 3 4 12 16 15 8 4 2 5 2 2 23 18 16 6 4 13 7 8
21 21 21 20 18 12 3 3 5 4 4 1 3 6 7 4 6 9 4 5 6 6 6 7 4 8 2 7 15 16 7 3 5 9 5 6 5 15 19 11 4 4 10 2
20 20 21 20 17 12 3 3 3 1 4 4 8 5 4 5 5 4 6 4 4 5 4 6 1 6 3 5 9 11 2 4 5 10 13 3 7 12 19 17 23 13 4 8
21 20 20 20 17 9 4 2 2 4 6 7 8 4 3 4 5 4 5 3 11 7 5 6 7 8 5 1 3 6 3 4 6 5 8 14 10 7 16 23 20 17 3 11
20 19 19 18 17 4 2 2 2 2 4 4 2 2 4 9 11 9 7 9 13 10 11 3 9 8 7 5 3 4 4 5 7 5 8 4 8 15 8 9 13 18 12 25
20 19 19 18 16 5 1 2 2 3 4 4 4 10 14 13 11 10 15 13 6 7 8 13 10 9 11 10 11 8 3 6 2 4 5 5 1 16 2 11 10 11 7 8
21 19 19 18 17 11 2 2 2 2 5 6 11 8 11 12 11 10 9 10 6 4 6 4 4 2 4 11 5 2 6 2 3 2 3 4 7 13 11 6 4 12 11 14
22 20 19 17 16 12 2 3 3 3 4 4 4 11 9 5 4 5 5 7 5 2 1 2 2 1 1 2 2 4 9 10 4 1 2 3 9 15 7 4 3 14 13 13
23 22 20 17 15 13 1 2 4 3 4 5 4 5 5 4 3 4 5 7 7 3 3 2 2 3 1 4 3 2 3 1 3 2 2 1 13 17 1 6 6 15 12 11
24 21 20 17 16 11 1 3 5 2 3 9 7 4 6 6 4 3 4 4 3 3 6 4 4 3 1 1 1 1 2 1 0 2 1 2 17 6 9 5 6 8 11 9
23 21 19 17 16 11 2 2 2 3 4 9 6 12 17 13 18 4 2 3 3 3 1 2 4 2 4 3 1 4 2 2 2 5 3 8 10 3 1 4 7 8 9 14
22 21 18 17 13 10 4 3 0 1 4 6 4 5 2 2 9 10 4 3 3 1 3 2 2 2 1 2 1 2 1 1 1 4 5 12 15 5 4 9 9 12 12 14
23 20 17 14 11 8 5 2 1 1 3 4 8 3 7 4 5 9 11 2 2 2 1 1 2 3 1 2 1 2 1 3 3 2 6 13 6 8 13 16 13 12 14 13
24 22 19 14 10 9 3 2 4 4 0 3 7 10 4 5 1 5 7 9 4 1 2 2 2 1 3 2 1 1 4 5 1 1 2 5 12 12 17 16 13 13 13 17
24 25 22 15 9 2 1 4 2 6 4 3 5 3 6 5 1 8 6 4 4 2 2 3 2 2 3 0 1 6 12 7 2 3 4 8 19 14 15 9 15 13 11 14
27 24 23 14 10 3 3 4 2 7 3 2 5 5 4 4 4 2 2 2 1 2 2 2 1 3 1 1 2 10 11 11 10 4 5 7 11 10 18 16 15 11 11 10
29 25 16 1 10 3 3 2 9 5 0 2 3 6 5 4 4 2 2 2 1 1 2 2 1 3 2 1 4 9 12 13 13 10 10 7 12 16 15 16 10 11 11 10
30 20 7 2 2 1 3 4 9 1 2 1 2 4 4 4 3 1 2 2 2 1 1 2 3 4 2 5 9 12 12 9 13 14 13 12 11 12 13 16 15 13 11 9
20 3 2 3 2 10 4 1 1 3 1 2 4 2 4 1 2 2 3 3 3 2 2 3 1 1 2 6 9 8 9 7 9 11 10 11 14 14 16 15 15 13 13 10
6 5 3 4 11 1 3 1 2 1 3 3 4 3 3 2 1 1 1 1 2 2 1 2 1 1 4 8 9 7 9 9 11 11 13 11 11 12 15 15 15 14 13 12
5 7 7 3 3 3 2 1 3 1 4 3 2 3 3 2 1 1 1 1 2 1 3 2 2 3 8 8 9 7 5 8 11 12 14 15 13 12 11 12 13 14 13 13
2 2 3 2 2 4 3 2 4 2 3 4 3 4 0 2 3 2 3 3 1 3 4 1 3 7 8 8 6 7 7 8 9 11 11 14 16 14 12 12 12 14 14 14
2 2 6 4 3 4 5 5 5 5 4 4 1 2 1 1 4 1 2 2 3 4 5 4 4 7 10 10 8 6 9 9 11 13 12 13 15 14 13 12 12 11 13 14
4 4 5 6 5 3 3 3 3 4 3 1 2 1 2 2 3 1 2 5 2 4 5 4 5 7 7 8 8 9 10 8 9 10 12 12 13 15 14 13 11 10 10 13
3 4 2 3 1 4 2 3 4 2 2 2 3 1 3 1 3 3 3 2 5 5 5 6 4 6 6 6 5 6 7 9 9 8 11 12 13 14 15 11 9 10 10 14
5 5 4 4 2 5 4 4 4 3 3 2 2 1 6 2 2 2 5 6 6 6 5 3 5 7 7 7 6 5 6 9 8 9 8 11 13 13 13 12 9 8 10 12
Wind_Direction
340 341 342 341 342 339 19 357 13 291 335 33 14 309 310 314 293 299 264 263 252 257 319 312 242 268 325 344 342 334 311 305 220 212 163 194 199 193 155 189 196 212 165 267
341 339 339 340 346 359 328 341 298 302 31 34 338 299 286 264 295 284 317 304 299 311 292 303 217 275 353 326 322 343 342 279 155 13 321 173 200 206 207 114 104 206 210 256
339 338 337 339 345 352 68 353 336 322 28 181 298 325 300 296 281 280 268 264 285 324 312 304 273 262 287 343 330 330 355 277 264 204 196 139 146 201 206 195 199 205 225 306
338 336 336 337 341 345 80 25 298 295 316 316 314 303 291 294 316 319 300 301 13 334 310 303 317 15 325 12 349 334 28 277 317 300 291 267 162 178 198 201 215 211 220 241
337 337 333 335 339 351 66 11 335 325 286 277 320 329 273 325 338 299 305 289 312 314 288 279 294 335 29 126 344 308 311 292 346 290 261 275 265 252 212 199 208 231 249 255
337 335 329 327 335 21 332 278 281 266 276 298 293 269 303 308 312 276 232 305 315 306 287 318 285 251 225 218 271 331 308 351 356 304 339 257 261 233 206 206 224 202 194 236
336 334 326 323 323 332 217 259 272 271 283 264 275 286 294 284 283 283 289 286 252 250 330 317 272 231 219 204 233 218 244 313 267 268 304 163 271 26 270 192 44 1 309 346
332 330 325 324 320 327 183 198 245 276 285 271 286 288 293 304 300 275 263 275 233 324 299 276 299 130 158 221 206 25 206 212 253 176 271 261 19 21 351 9 57 8 349 343
330 329 325 321 317 324 153 204 209 269 285 253 333 306 299 295 305 309 275 302 312 10 241 249 225 277 143 165 157 346 324 191 189 45 209 158 350 320 290 160 157 354 347 337
329 329 328 325 318 308 235 256 201 255 282 269 191 278 305 275 289 277 290 326 338 23 350 8 180 224 206 156 174 236 61 0 182 227 244 20 345 326 125 139 291 318 324 322
331 329 327 323 316 306 140 244 194 234 260 279 228 233 218 265 259 290 317 343 335 350 17 336 328 291 80 320 54 9 128 272 3 181 239 122 356 6 61 271 284 285 317 313
330 330 324 318 311 307 154 258 197 182 246 262 232 242 247 220 242 267 262 250 252 219 315 341 295 15 352 333 183 12 78 37 338 9 11 329 339 335 293 281 270 304 307 318
328 326 321 314 312 312 211 227 234 250 271 288 336 249 289 156 215 197 214 253 215 214 201 299 290 288 239 7 23 296 166 229 204 328 333 315 304 290 352 338 318 306 311 316
327 326 320 312 308 304 295 249 165 191 262 299 284 308 306 224 172 189 213 281 60 82 285 303 304 290 98 239 323 316 209 195 202 250 306 323 63 339 333 326 322 317 320 322
326 326 322 313 301 285 271 217 231 204 168 284 288 317 314 332 118 229 212 232 237 236 272 244 249 264 322 270 154 250 196 204 221 134 181 271 283 318 319 324 313 320 321 323
325 324 318 307 277 239 55 338 232 199 198 281 305 267 290 308 201 300 244 200 202 207 202 256 282 245 178 278 279 24 8 348 179 238 226 224 282 300 303 309 314 310 315 308
323 324 318 293 221 137 162 193 262 161 164 278 299 301 267 309 288 345 348 63 148 251 201 232 250 282 140 329 348 336 337 337 332 294 310 295 295 310 312 315 305 300 292 290
322 324 325 272 157 207 313 260 202 148 223 53 283 277 325 22 298 3 349 0 21 118 328 4 268 347 23 40 331 335 327 318 310 344 329 265 294 313 314 317 306 310 311 317
323 322 135 93 69 125 227 102 106 176 152 217 284 290 297 344 275 22 343 19 14 250 10 21 18 354 39 319 334 328 325 305 301 308 316 310 315 320 324 323 318 317 312 313
323 46 35 328 252 314 75 54 29 13 244 211 249 215 264 234 289 43 354 3 12 4 19 307 29 179 3 276 270 268 291 304 293 299 299 319 318 321 321 313 303 302 299 297
5 1 322 299 306 64 39 18 83 306 286 230 248 229 278 305 331 348 25 7 334 337 326 332 353 354 273 270 287 292 272 273 267 265 269 275 276 280 287 298 305 302 299 296
261 283 289 286 337 24 87 289 317 207 242 270 221 272 221 309 55 105 320 78 353 333 315 315 48 273 278 294 297 301 281 264 268 263 267 272 271 275 278 283 288 295 299 295
254 209 262 57 291 30 157 221 300 302 254 258 338 319 345 358 43 35 57 49 267 359 37 9 237 274 308 318 311 309 304 305 293 297 287 283 284 282 275 280 278 281 290 295
234 210 298 175 252 240 189 190 206 233 226 274 250 262 100 17 51 12 2 260 50 43 31 266 265 313 310 313 313 328 318 315 323 325 312 292 288 285 277 267 270 276 281 287
228 118 243 229 241 250 213 225 295 243 229 148 19 17 93 9 78 35 51 17 345 188 218 238 256 291 292 300 320 327 319 314 307 306 327 326 314 311 292 269 261 260 265 280
227 231 261 227 337 277 213 195 255 226 147 80 59 93 48 327 136 61 198 114 224 250 227 236 280 289 285 272 282 283 285 293 297 313 318 330 329 321 313 290 272 265 261 264
224 252 212 176 229 228 239 190 235 152 97 230 115 61 221 102 45 286 189 204 220 225 260 253 243 259 274 274 282 287 302 312 320 309 315 326 323 330 328 340 294 258 262 266